DW6866 Weather Reports


time (UTC)temp
C
wind
direction
speed
KPH
gust
KPH
rain 1hr
cm
rain 24hr
cm
rain mn
cm
humidity
%
barometer
mb
20260503214617 25 327 1.6 9.7 0.00 0.00 0.00 45 1011.2
20260503213121 24 61 6.4 14.5 0.00 0.00 0.00 47 1011.4
20260503211647 24 294 4.8 11.3 0.00 0.00 0.00 46 1011.6
20260503210129 24 13 3.2 11.3 0.00 0.00 0.00 48 1011.7
20260503204613 23 330 8.0 12.9 0.00 0.00 0.00 49 1011.9
20260503203116 24 300 0.0 12.9 0.00 0.00 0.00 51 1012.1
20260503201619 23 20 0.0 12.9 0.00 0.00 0.00 51 1012.2
20260503200125 23 350 0.0 12.9 0.00 0.00 0.00 52 1012.4
20260503194628 23 20 1.6 9.7 0.00 0.00 0.00 53 1012.6
20260503193115 23 35 1.6 8.0 0.00 0.00 0.00 53 1012.9
20260503191635 23 348 4.8 11.3 0.00 0.00 0.00 51 1013.0
20260503190118 22 340 0.0 8.0 0.00 0.00 0.00 55 1013.1
20260503184622 22 39 3.2 11.3 0.00 0.00 0.00 56 1013.2
20260503183148 21 51 1.6 8.0 0.00 0.00 0.00 57 1013.4
20260503181631 21 59 0.0 11.3 0.00 0.00 0.00 58 1013.6
20260503180140 20 311 0.0 9.7 0.00 0.00 0.00 60 1013.7
20260503174622 20 31 1.6 8.0 0.00 0.00 0.00 61 1013.8
20260503173130 19 19 3.2 11.3 0.00 0.00 0.00 63 1013.8
20260503171632 19 353 0.0 9.7 0.00 0.00 0.00 63 1013.8
20260503170117 19 307 1.6 9.7 0.00 0.00 0.00 64 1013.9
20260503160117 18 34 1.6 6.4 0.00 0.00 0.00 64 1014.1
20260503150118 15 338 0.0 0.0 0.00 0.00 0.00 85 1014.1
20260503140115 11 338 0.0 0.0 0.00 0.00 0.00 91 1013.9
20260503130118 10 333 0.0 0.0 0.00 0.00 0.00 91 1013.7
20260503120132 10 333 0.0 0.0 0.00 0.00 0.00 90 1013.8
20260503110130 10 135 0.0 0.0 0.00 0.00 0.00 90 1013.9
20260503100138 11 135 0.0 0.0 0.00 0.00 0.00 88 1013.9
20260503090140 11 135 0.0 0.0 0.00 0.00 0.00 86 1014.1
20260503081627 12 19 0.0 0.0 0.00 0.00 0.00 84 1014.2
20260503080113 12 19 0.0 0.0 0.00 0.00 0.00 82 1014.2
20260503071626 12 19 0.0 0.0 0.00 0.00 0.00 83 1014.2
20260503070130 12 19 0.0 0.0 0.00 0.00 0.00 82 1014.2
20260503060123 13 19 0.0 0.0 0.00 0.00 0.00 77 1014.0
20260503054625 14 19 0.0 0.0 0.00 0.00 0.00 75 1014.0
20260503053130 15 19 0.0 0.0 0.00 0.00 0.00 74 1014.0
20260503051616 15 19 0.0 0.0 0.00 0.00 0.00 70 1013.9
20260503050116 16 19 0.0 0.0 0.00 0.00 0.00 69 1013.8
20260503044621 16 16 0.0 0.0 0.00 0.00 0.00 67 1013.8
20260503043125 17 16 0.0 0.0 0.00 0.00 0.00 64 1013.6
20260503041625 17 14 0.0 0.0 0.00 0.00 0.00 63 1013.3
20260503040113 17 355 0.0 4.8 0.00 0.00 0.00 61 1013.2
20260503034613 18 346 0.0 0.0 0.00 0.00 0.00 61 1013.0
20260503033123 18 30 0.0 8.0 0.00 0.00 0.00 58 1012.8
20260503031624 19 359 0.0 1.6 0.00 0.00 0.00 57 1012.6
20260503030148 20 5 0.0 0.0 0.00 0.00 0.00 55 1012.4
20260503024633 20 314 0.0 0.0 0.00 0.00 0.00 55 1012.3
20260503023118 21 14 0.0 0.0 0.00 0.00 0.00 53 1012.3
20260503021619 21 312 0.0 0.0 0.00 0.00 0.00 52 1012.3
20260503020148 21 293 1.6 14.5 0.00 0.00 0.00 51 1012.3
20260503014629 22 305 0.0 9.7 0.00 0.00 0.00 50 1012.3
20260503013118 22 19 8.0 12.9 0.00 0.00 0.00 50 1012.4
20260503011637 22 323 0.0 12.9 0.00 0.00 0.00 51 1012.4
20260503010119 22 328 3.2 12.9 0.00 0.00 0.00 50 1012.4
20260503004622 22 1 6.4 14.5 0.00 0.00 0.00 48 1012.6
20260503003126 22 284 1.6 8.0 0.00 0.00 0.00 49 1012.6
20260503001650 22 295 6.4 17.7 0.00 0.00 0.00 49 1012.7
20260503000117 22 7 6.4 16.1 0.00 0.00 0.00 50 1012.9
20260502234617 22 359 1.6 16.1 0.00 0.00 0.00 52 1012.9
20260502233124 22 328 4.8 16.1 0.00 0.00 0.00 54 1013.2
20260502231625 21 334 4.8 16.1 0.00 0.00 0.00 56 1013.4
20260502230130 21 324 3.2 16.1 0.00 0.00 0.00 57 1013.7
20260502224615 21 3 6.4 12.9 0.00 0.00 0.00 57 1013.9
20260502223118 21 341 8.0 12.9 0.00 0.00 0.00 57 1014.0
20260502221641 21 13 4.8 14.5 0.00 0.00 0.00 59 1014.2
20260502220126 21 266 6.4 11.3 0.00 0.00 0.00 58 1014.3